Retour au catalogue

STARLINK-32696

ActifCommunicationsVLEO
NORAD 62310·PAYLOAD·🇺🇸 United States

Lancé Dec 13, 2024 depuis Vandenberg Space Force Base

Loading…

Prochains Passages (prochaines 24 heures)

TLE

FraisSource: CelesTrak SupGP

Époque: Sep 15, 2026, 02:13 UTC

1 62310C 24239K   26258.09284722 -.00001811  00000+0 -53493-4 0  2587
2 62310  53.1601  30.6400 0001136  80.2274 223.6612 15.34395054    19

Suivez STARLINK-32696 en temps réel avec AllMySat

Download on the App Store